STARLINK-33818, 63502

Orbit data source: Space-Track

STARLINK-33818, 63502 is a payload satellite owned by SpaceX/Seattle (US) in LEO that was launched on Mon, 07 Apr 2025 UTC via an FALCON 9 launch vehicle from the Air Force Western Test Range (AFWTR). Payload-class satellites include a variety of spacecraft equipped with specific instruments for various scientific and technological missions. These include communications satellites like Starlink; space stations such as the ISS; scientific satellites like the Hubble; Earth observation satellites from companies like Planet Labs, Umbra, and HawkEye 360; GPS; miniature CubeSats for education and research; and military/defense satellites.

Loading next visibility...
Identifier
63502, 2025-071K
Orbit
LEO
Country
Flag of USUS
Related business
Manufacturer
SpaceX/Seattle
Mission
Operational Commercial Communications
Bus & Motor
STARLINK V2MO, Unknown motor
Mass
575 kg wet, ~530 kg dry
Launch date (UTC)
2025-04-07 (1 year ago)
Launch vehicle
FALCON 9
Launch site
Air Force Western Test Range (AFWTR)
Object type
Payload
Rocket body
Debris
Shape & HBR
Box + 2 Pan, 17.7 m
Radar Cross Section
36.964 m², Large (>1 m²)

Expand to show TLE details & history
Last TLE update: 12 hours ago

TLE from 12 hours ago
0 STARLINK-33818
1 63502U 25071K   26127.28824698  .00020605  00000-0  70554-3 0  9993
2 63502  53.1583 227.5912 0001150  88.5928 271.5204 15.30216056 61746
Epoch: 2026-05-07T06:55Z
TLE epoch observation values (Epoch: 2026-05-07T06:55:04.539Z)
Latitude
-0.00004°
Longitude
-101.31428°
Altitude
476.046 km
Speed
7.629 km/s
True Right ascension
15h 10m 21s
True Declination
0° 00' 00"
Sunlit
Object was in full shadow at epoch
Visualization orbit readout
Latitude
Unknown
Longitude
Unknown
Altitude
Unknown
Speed
Unknown
Apparent Right ascension
Unknown
Apparent Declination
Unknown
Sunlit
N/A
Visualization observer readout
Local Sidereal Time
03:24:28
Azimuth
Unknown
Elevation
Unknown
Doppler factor
Unknown
Orbital elements
Apogee altitude
476.212 km
Perigee altitude
474.636 km
Semi-major axis
6,853.561 km
Eccentricity
0.00012
Inclination
53.1583°
RAAN
227.5912°
Arg. of periapsis
88.5928°
True anomaly
271.50723°
Mean anomaly
271.5204°
Eccentric anomaly
271.51381°
Mean motion
3.82533 °/min
Orbital period
94.11 mins
BSTAR
0.00070554
Loading maneuver chart data...
Computing Atmospheric mass density...
Loading historical data...
Loading historical data...
Loading historical data...
Loading historical data...
Loading historical data...
Loading historical data...
Loading historical data...

Documentation

Showing up to 5 results
|